Location: Ash Swamp
(41.5170°N, 74.6157°W)
Time: 17:07:02
(UTC+00:00)

Cosmos 1371 Rocket - Pass Details

Date: 14 July 2020
Orbit: 753 x 790 km, 74.0° (Epoch: 05 August)

Event Time Altitude Azimuth Distance (km) Brightness Sun altitude
Rises 02:13:08 0° 343° (NNW) 3,256 8.5 -15.4°
Reaches altitude 10° 02:15:33 10° 347° (NNW) 2,331 7.5 -15.7°
Maximum altitude 02:20:47 61° 68° (ENE) 887 4.2 -16.4°
Enters shadow 02:23:31 28° 139° (SE) 1,435 4.8 -16.7°
